EA5EN Weather Reports


time (UTC)temp
F
wind
direction
speed
knots
gust
knots
rain 1hr
in
rain 24hr
in
rain mn
in
humidity
%
barometer
mb
20260510211105 70 290 0.9 3.5 0.00 0.00 0.00 58 1013.1
20260510210100 71 255 0.9 1.7 0.00 0.00 0.00 56 1013.0
20260510205035 71 0.0 1.7 0.00 0.00 0.00 56 1012.8
20260510204030 71 225 0.0 1.7 0.00 0.00 0.00 56 1012.7
20260510203025 71 225 0.9 1.7 0.00 0.00 0.00 57 1012.6
20260510202020 71 261 0.9 3.5 0.00 0.00 0.00 56 1012.4
20260510201115 71 270 0.0 1.7 0.00 0.00 0.00 57 1012.1
20260510200110 71 293 0.9 3.5 0.00 0.00 0.00 56 1011.9
20260510195104 72 293 0.9 1.7 0.00 0.00 0.00 53 1011.7
20260510194058 72 307 1.7 3.5 0.00 0.00 0.00 52 1011.6
20260510193113 73 261 3.5 7.0 0.00 0.00 0.00 50 1011.4
20260510192208 73 293 3.5 6.1 0.00 0.00 0.00 50 1011.4
20260510191043 74 260 1.7 3.5 0.00 0.00 0.00 47 1011.2
20260510190037 74 232 1.7 3.5 0.00 0.00 0.00 46 1011.3
20260510185032 74 248 0.9 1.7 0.00 0.00 0.00 47 1011.0
20260510184027 75 236 2.6 5.2 0.00 0.00 0.00 46 1010.9
20260510183022 75 212 2.6 6.1 0.00 0.00 0.00 45 1010.9
20260510182016 76 192 4.3 7.8 0.00 0.00 0.00 44 1010.7
20260510181111 76 161 4.3 9.6 0.00 0.00 0.00 44 1010.6
20260510180105 76 173 5.2 11.3 0.00 0.00 0.00 45 1010.7
20260510175058 76 204 5.2 12.2 0.00 0.00 0.00 43 1010.6
20260510174052 77 195 6.1 11.3 0.00 0.00 0.00 43 1010.7
20260510173047 77 203 4.3 9.6 0.00 0.00 0.00 43 1010.5
20260510172042 77 181 5.2 12.2 0.00 0.00 0.00 43 1010.7
20260510171037 78 147 4.3 9.6 0.00 0.00 0.00 42 1010.6
20260510170032 78 134 6.1 12.2 0.00 0.00 0.00 42 1010.4
20260510165027 78 161 5.2 11.3 0.00 0.00 0.00 42 1010.5
20260510164022 78 163 7.0 14.8 0.00 0.00 0.00 42 1010.5
20260510163016 79 188 4.3 11.3 0.00 0.00 0.00 42 1010.6
20260510162132 79 166 5.2 13.0 0.00 0.00 0.00 42 1010.6
20260510161147 79 147 6.1 14.8 0.00 0.00 0.00 42 1010.6
20260510160120 79 160 6.1 13.0 0.00 0.00 0.00 42 1010.6
20260510155135 79 193 6.1 12.2 0.00 0.00 0.00 42 1010.5
20260510154050 80 144 6.1 13.9 0.00 0.00 0.00 41 1010.6
20260510153105 80 194 7.0 15.6 0.00 0.00 0.00 41 1010.5
20260510152039 80 222 7.0 12.2 0.00 0.00 0.00 40 1010.7
20260510151034 81 168 5.2 13.0 0.00 0.00 0.00 40 1010.8
20260510150029 79 186 7.8 15.6 0.00 0.00 0.00 42 1011.0
20260510145024 79 227 8.7 15.6 0.00 0.00 0.00 42 1010.9
20260510144019 79 185 8.7 18.2 0.00 0.00 0.00 43 1011.2
20260510143114 79 224 7.0 20.0 0.00 0.00 0.00 42 1011.2
20260510142108 79 196 7.0 17.4 0.00 0.00 0.00 42 1011.2
20260510141102 80 164 7.8 15.6 0.00 0.00 0.00 41 1011.3
20260510140056 80 199 8.7 20.0 0.00 0.00 0.00 42 1011.4
20260510135051 81 153 6.1 17.4 0.00 0.00 0.00 42 1011.5
20260510134046 80 209 7.8 14.8 0.00 0.00 0.00 42 1011.8
20260510133041 79 211 7.0 13.0 0.00 0.00 0.00 42 1011.7
20260510132037 79 157 8.7 14.8 0.00 0.00 0.00 43 1011.9
20260510131031 80 235 7.8 17.4 0.00 0.00 0.00 42 1012.0
20260510130047 79 202 8.7 15.6 0.00 0.00 0.00 43 1012.1
20260510125042 80 207 7.8 15.6 0.00 0.00 0.00 41 1012.2
20260510124015 79 212 7.0 17.4 0.00 0.00 0.00 43 1012.3
20260510123131 79 222 7.8 15.6 0.00 0.00 0.00 44 1012.5
20260510122105 77 209 7.0 13.0 0.00 0.00 0.00 46 1012.5
20260510121059 78 189 7.0 12.2 0.00 0.00 0.00 44 1012.7
20260510120114 78 159 5.2 11.3 0.00 0.00 0.00 42 1013.0
20260510115049 78 217 5.2 9.6 0.00 0.00 0.00 46 1012.9
20260510114103 77 233 2.6 7.8 0.00 0.00 0.00 46 1013.0
20260510113059 76 123 2.6 6.1 0.00 0.00 0.00 48 1013.2
20260510112033 77 214 1.7 6.1 0.00 0.00 0.00 48 1013.4
20260510111028 77 203 2.6 7.0 0.00 0.00 0.00 46 1013.7
20260510110023 78 163 4.3 7.8 0.00 0.00 0.00 47 1013.8
20260510105018 79 202 1.7 6.1 0.00 0.00 0.00 47 1013.9
20260510104113 78 45 1.7 7.8 0.00 0.00 0.00 50 1013.9
20260510103127 76 73 0.9 3.5 0.00 0.00 0.00 52 1014.0
20260510102101 76 125 1.7 6.1 0.00 0.00 0.00 51 1014.1
20260510101056 75 85 2.6 6.1 0.00 0.00 0.00 54 1014.2
20260510100051 74 101 2.6 6.1 0.00 0.00 0.00 57 1014.3
20260510095046 73 76 2.6 7.0 0.00 0.00 0.00 58 1014.2
20260510094041 73 72 1.7 6.1 0.00 0.01 0.00 59 1014.3
20260510093036 72 88 2.6 5.2 0.00 0.04 0.00 60 1014.5
20260510092050 72 90 1.7 5.2 0.00 0.07 0.00 60 1014.4
20260510091025 71 63 1.7 5.2 0.00 0.07 0.00 60 1014.5
20260510090020 71 98 1.7 5.2 0.00 0.07 0.00 62 1014.5
20260510085115 71 113 0.9 1.7 0.00 0.07 0.00 65 1014.6
20260510084110 69 85 0.9 3.5 0.00 0.07 0.00 68 1014.8
20260510083105 67 9 1.7 3.5 0.00 0.07 0.00 71 1014.8
20260510082058 68 292 0.9 3.5 0.00 0.07 0.00 71 1014.8
20260510081054 66 26 0.9 1.7 0.00 0.07 0.00 73 1014.9
20260510080049 68 101 0.0 1.7 0.00 0.07 0.00 72 1014.9
20260510075043 65 113 0.9 3.5 0.00 0.07 0.00 76 1014.9
20260510074038 64 90 0.9 3.5 0.00 0.07 0.00 79 1014.9
20260510073054 64 173 1.7 3.5 0.00 0.07 0.00 79 1015.0
20260510072028 65 270 0.9 1.7 0.00 0.07 0.00 77 1015.2
20260510071043 63 270 0.9 1.7 0.00 0.07 0.00 78 1015.1
20260510070018 64 296 0.9 3.5 0.00 0.07 0.00 77 1015.1
20260510065113 63 315 0.0 1.7 0.00 0.07 0.00 80 1015.1
20260510064107 60 0.0 1.7 0.00 0.07 0.00 85 1015.1
20260510063120 59 315 0.9 1.7 0.00 0.07 0.00 84 1014.9
20260510062055 60 315 0.9 1.7 0.00 0.07 0.00 85 1014.8
20260510061110 59 0.0 1.7 0.00 0.07 0.00 87 1014.8
20260510060044 57 315 0.0 1.7 0.00 0.07 0.00 89 1014.7
20260510055039 57 0.0 1.7 0.00 0.07 0.00 89 1014.6
20260510054054 57 315 0.9 1.7 0.00 0.07 0.00 90 1014.5
20260510053029 57 338 0.0 1.7 0.00 0.07 0.00 90 1014.4
20260510052024 57 338 0.9 1.7 0.00 0.07 0.00 90 1014.5
20260510051019 57 0.0 0.0 0.00 0.07 0.00 91 1014.4
20260510050114 57 0.0 1.7 0.00 0.07 0.00 92 1014.4
20260510045109 57 0.0 0.0 0.00 0.07 0.00 93 1014.2
20260510044103 56 338 0.9 1.7 0.00 0.07 0.00 92 1014.4
20260510043117 56 338 0.0 1.7 0.00 0.07 0.00 92 1014.3
20260510042052 56 0.0 1.7 0.00 0.07 0.00 92 1014.5
20260510041047 57 23 0.0 1.7 0.00 0.07 0.00 92 1014.4
20260510040041 57 23 0.0 1.7 0.00 0.07 0.00 92 1014.2
20260510035037 57 0.0 0.0 0.00 0.07 0.00 92 1014.2
20260510034031 57 0.0 0.0 0.00 0.07 0.00 92 1014.3
20260510033126 57 23 0.0 1.7 0.00 0.07 0.00 92 1014.3
20260510032041 57 0.0 1.7 0.00 0.07 0.00 91 1014.2
20260510031115 57 0.0 0.0 0.00 0.07 0.00 91 1014.3
20260510030110 57 23 0.0 1.7 0.00 0.07 0.00 91 1014.2
20260510025105 57 23 0.0 1.7 0.00 0.07 0.00 90 1014.2
20260510024059 57 0.0 0.0 0.00 0.07 0.00 92 1014.1
20260510023114 57 23 0.0 1.7 0.00 0.07 0.00 91 1014.0
20260510022048 57 0.0 1.7 0.00 0.07 0.00 91 1014.0
20260510021043 58 23 0.0 1.7 0.00 0.07 0.00 90 1013.9
20260510020059 58 23 0.0 1.7 0.00 0.07 0.00 90 1014.0
20260510015033 58 23 0.9 1.7 0.00 0.07 0.00 89 1013.9
20260510014028 58 23 0.0 1.7 0.00 0.07 0.00 89 1013.9
20260510013023 58 0.0 1.7 0.00 0.07 0.00 89 1014.0
20260510012018 58 0.0 0.0 0.00 0.07 0.00 88 1013.9
20260510011113 58 0.0 0.0 0.00 0.07 0.00 88 1013.8
20260510010108 59 23 0.9 1.7 0.00 0.07 0.00 87 1013.9
20260510005102 58 23 1.7 1.7 0.00 0.07 0.00 87 1014.0
20260510004057 58 23 1.7 3.5 0.00 0.07 0.00 87 1014.1
20260510003052 59 23 0.9 1.7 0.00 0.07 0.00 86 1014.2
20260510002047 59 23 1.7 3.5 0.00 0.07 0.00 87 1014.2
20260510001042 59 45 0.9 1.7 0.00 0.07 0.00 87 1014.3
20260510000036 59 0.0 1.7 0.00 0.07 0.00 86 1014.3
20260509235031 59 45 0.9 1.7 0.00 0.07 0.00 85 1014.3
20260509234026 60 23 2.6 6.1 0.00 0.07 0.00 83 1014.3
20260509233020 60 11 1.7 3.5 0.00 0.07 0.00 83 1014.3
20260509232115 60 19 2.6 3.5 0.00 0.07 0.00 83 1014.3
20260509231110 60 19 2.6 6.1 0.00 0.07 0.00 84 1014.5
20260509230105 59 23 0.9 5.2 0.00 0.07 0.00 86 1014.5
20260509225059 59 23 1.7 3.5 0.00 0.07 0.00 86 1014.4
20260509224054 60 35 1.7 3.5 0.00 0.07 0.00 85 1014.5
20260509223048 61 28 1.7 3.5 0.00 0.07 0.00 83 1014.5
20260509222043 61 14 0.9 3.5 0.00 0.07 0.00 83 1014.5
20260509221038 61 0 0.0 1.7 0.00 0.07 0.00 83 1014.4
20260509220033 61 17 0.9 1.7 0.00 0.07 0.00 82 1014.5
20260509215028 62 23 0.9 1.7 0.00 0.07 0.07 81 1014.4
20260509214043 62 16 0.9 3.5 0.00 0.07 0.07 80 1014.2
20260509213018 62 23 1.7 3.5 0.00 0.07 0.07 80 1014.2
20260509212112 62 20 0.9 1.7 0.00 0.07 0.07 80 1014.2